Date,TemperatureHighF,TemperatureAvgF,TemperatureLowF,DewpointHighF,DewpointAvgF,DewpointLowF,HumidityHigh,HumidityAvg,HumidityLow,PressureMaxIn,PressureMinIn,WindSpeedMaxMPH,WindSpeedAvgMPH,GustSpeedMaxMPH,PrecipitationSumIn
2013-9-1,79.3,74.7,69.9,73.2,70.6,65.8,95,87,77,29.70,29.61,13,1,13,0.01
2013-9-2,77.2,73.7,71.6,75.4,71.9,70.0,98,94,83,29.68,29.52,10,0,10,0.38
2013-9-3,80.3,71.4,64.2,70.7,65.5,56.5,99,83,67,29.63,29.51,12,1,12,0.00
2013-9-4,77.8,67.9,59.8,59.4,56.3,51.4,90,69,42,29.74,29.62,15,2,15,0.00
2013-9-5,70.9,62.3,51.9,61.5,51.7,41.3,95,71,40,29.97,29.67,6,0,6,0.00
2013-9-6,67.9,56.5,46.0,48.5,41.6,35.0,89,61,32,30.05,29.90,5,0,8,0.00
2013-9-7,76.4,62.2,46.3,58.7,50.3,44.0,93,68,39,29.90,29.66,8,0,9,0.00
2013-9-8,73.1,63.4,49.8,61.4,50.8,38.6,94,66,36,29.92,29.57,12,0,34,0.00
2013-9-9,68.0,56.5,42.9,50.9,43.2,38.1,91,64,38,30.04,29.91,11,0,11,0.00
2013-9-10,75.7,66.6,56.9,69.5,62.0,49.9,94,85,74,29.95,29.84,14,2,14,0.06
2013-9-11,91.0,79.5,67.1,74.8,70.5,65.2,99,77,45,29.88,29.76,20,1,20,0.00
2013-9-12,85.2,75.8,67.0,72.8,68.0,64.1,96,78,58,29.78,29.48,20,2,20,0.64
2013-9-13,76.6,67.5,57.8,68.6,62.4,52.9,97,85,63,29.59,29.39,6,0,8,0.05
2013-9-14,65.8,58.9,52.5,54.3,51.8,48.5,92,78,62,29.87,29.58,10,0,10,0.00
2013-9-15,68.8,58.1,49.1,52.2,48.3,40.9,95,73,38,29.97,29.86,14,1,14,0.00
2013-9-16,67.8,57.8,45.3,54.5,49.0,35.2,91,73,57,30.07,29.81,7,0,7,0.00
2013-9-17,63.1,50.4,39.9,46.2,38.7,33.3,86,66,41,30.23,30.07,5,0,5,0.00
2013-9-18,69.4,52.4,46.6,47.3,43.1,37.8,86,73,34,30.13,30.04,8,1,8,0.00
2013-9-19,80.4,72.7,55.9,55.3,48.9,43.9,88,45,35,29.97,29.85,7,1,7,0.00
2013-9-20,80.0,65.1,54.0,58.1,53.3,47.2,91,69,32,29.90,29.81,6,0,6,0.00
2013-9-21,72.8,63.0,51.0,63.8,57.2,49.1,98,83,63,29.83,29.52,18,2,18,0.00
2013-9-22,68.0,62.4,52.7,66.7,54.5,43.5,97,77,52,29.66,29.41,17,2,18,0.56
2013-9-23,64.7,52.8,43.6,45.4,41.5,38.7,89,67,46,29.83,29.66,8,0,8,0.00
2013-9-24,68.1,53.8,44.1,46.3,41.9,39.0,86,67,37,29.81,29.62,10,0,10,0.00
2013-9-25,68.9,57.5,48.8,52.4,47.2,42.9,85,69,51,29.80,29.68,5,0,9,0.00
2013-9-26,67.9,57.8,52.3,52.0,48.4,44.2,89,72,48,29.94,29.80,3,0,3,0.00
2013-9-27,65.2,57.9,51.7,54.2,51.1,49.4,93,79,62,30.08,29.94,4,0,4,0.00
2013-9-28,73.1,58.7,48.3,58.4,51.5,46.9,97,79,48,30.15,30.07,0,0,1,0.00
2013-9-29,70.1,54.4,43.2,57.3,46.8,39.0,99,79,36,30.08,29.93,2,0,2,0.00
2013-9-30,72.3,53.9,39.2,54.1,46.7,37.3,96,80,44,29.94,29.78,1,0,1,0.00